Weather History for Olathe, KS

Change the Weather History Date:

Tuesday, October 9, 2012

  Actual Average Record
Temperature  
Mean Temperature 54 °F 60 °F  
Max Temperature 65 °F 70 °F 91 °F (1963)
Min Temperature 43 °F 50 °F 27 °F (2000)
Degree Days  
Heating Degree Days 11 7  
Month to date heating degree days 112 52  
Since 1 July heating degree days 150 101  
Cooling Degree Days 0 1  
Month to date cooling degree days 2 16  
Year to date cooling degree days 1799 1337  
Growing Degree Days 4 (Base 50)    
Moisture  
Dew Point 41 °F    
Average Humidity 62    
Maximum Humidity 76    
Minimum Humidity 47    
Precipitation  
Precipitation 0.00 in 0.12 in 1.12 in (1941)
Month to date precipitation 0.01 1.12  
Year to date precipitation 21.73 33.59  
Sea Level Pressure  
Sea Level Pressure 29.96 in    
Wind  
Wind Speed 9 mph (WSW)    
Max Wind Speed 17 mph    
Max Gust Speed 26 mph    
Visibility 10 miles    
Events      
T = Trace of Precipitation, MM = Missing Value Source: NWS Daily Summary

Daily Weather History Graph

Daily Weather History Graph

Search for Another Location

Airport:

Trip Planner

Search our weather history database for the weather conditions in past years. The results will help you decide how hot, cold, wet, or windy it might be!

Date:

Astronomy

Oct. 09, 2012 Rise Set
Actual Time 7:22 AM CDT 6:48 PM CDT
Civil Twilight 6:56 AM CDT 7:15 PM CDT
Nautical Twilight 6:25 AM CDT 7:46 PM CDT
Astronomical Twilight 5:54 AM CDT 8:16 PM CDT
Moon 1:03 AM CDT (10/9) 3:13 PM CDT (10/9)
Length of Visible Light 12h 18m
Length of Day
11h 25m
Last Quarter, 36% of the Moon is Illuminated
Oct 9
Last Quarter
Oct 15
New
Oct 21
First Quarter
Oct 29
Full
Nov 6
Last Quarter

Hourly Weather History & Observations

Time (CDT) Temp. Windchill Dew Point Humidity Pressure Visibility Wind Dir Wind Speed Gust Speed Precip Events Conditions
12:53 AM 48.0 °F - 37.0 °F 66% 29.96 in 10.0 mi SSW 11.5 mph - N/A   Clear
1:53 AM 46.9 °F - 37.0 °F 68% 29.95 in 10.0 mi South 10.4 mph - N/A   Clear
4:53 AM 46.0 °F 41.9 °F 36.0 °F 68% 29.93 in 10.0 mi SSW 8.1 mph - N/A   Clear
5:53 AM 45.0 °F 41.2 °F 36.0 °F 71% 29.93 in 10.0 mi SSW 6.9 mph - N/A   Clear
6:53 AM 45.0 °F 40.1 °F 37.0 °F 74% 29.93 in 10.0 mi SSW 9.2 mph - N/A   Clear
7:53 AM 45.0 °F 40.6 °F 37.9 °F 76% 29.92 in 10.0 mi South 8.1 mph - N/A   Clear
8:53 AM 48.0 °F - 39.9 °F 74% 29.92 in 10.0 mi South 11.5 mph - N/A   Clear
9:53 AM 52.0 °F - 42.1 °F 69% 29.93 in 10.0 mi SSW 13.8 mph 19.6 mph N/A   Clear
10:53 AM 55.9 °F - 44.1 °F 64% 29.93 in 10.0 mi SSW 11.5 mph 18.4 mph N/A   Clear
11:53 AM 61.0 °F - 46.0 °F 58% 29.92 in 10.0 mi SSW 11.5 mph - N/A   Clear
12:53 PM 63.0 °F - 46.0 °F 54% 29.90 in 10.0 mi SW 10.4 mph - N/A   Partly Cloudy
1:16 PM 64.4 °F - 46.4 °F 52% 29.90 in 10.0 mi SW 9.2 mph 16.1 mph N/A   Mostly Cloudy
1:53 PM 63.0 °F - 46.9 °F 56% 29.90 in 10.0 mi WSW 8.1 mph - N/A   Mostly Cloudy
2:53 PM 64.0 °F - 48.0 °F 56% 29.89 in 10.0 mi SW 8.1 mph - N/A   Overcast
3:53 PM 63.0 °F - 48.0 °F 58% 29.90 in 10.0 mi SW 4.6 mph - N/A   Overcast
4:06 PM 62.6 °F - 46.4 °F 55% 29.90 in 10.0 mi North 9.2 mph - N/A   Overcast
4:53 PM 61.0 °F - 41.0 °F 48% 29.92 in 10.0 mi North 9.2 mph - N/A   Overcast
5:53 PM 59.0 °F - 39.0 °F 48% 29.95 in 10.0 mi North 13.8 mph 21.9 mph N/A   Overcast
6:53 PM 57.0 °F - 42.1 °F 57% 29.99 in 10.0 mi North 16.1 mph 23.0 mph N/A   Overcast
7:53 PM 57.0 °F - 41.0 °F 55% 30.01 in 10.0 mi North 10.4 mph - N/A   Overcast
8:53 PM 54.0 °F - 39.9 °F 59% 30.04 in 10.0 mi North 11.5 mph 19.6 mph N/A   Scattered Clouds
9:53 PM 52.0 °F - 35.1 °F 53% 30.09 in 10.0 mi North 12.7 mph - N/A   Clear
10:53 PM 48.9 °F - 30.9 °F 50% 30.12 in 10.0 mi North 5.8 mph - N/A   Clear
11:53 PM 46.9 °F - 30.0 °F 52% 30.13 in 10.0 mi NNW 3.5 mph - N/A   Clear